QPF
0.00 0.00 0.00 0.00 0.00 0.00 0.00 0.00 0.00 0.00 0.00 0.00 0.00 0.00 0.00 0.00 0.00 0.00 0.00 0.00 0.00 0.00 0.00 0.00 0.00 0.00 0.00 0.00 0.00 0.00 0.00 0.00 0.00 0.00 0.00 0.00 0.00 0.00 0.00 0.00 0.00 0.00 0.00 0.00 0.00 0.00 0.00 0.00 0.00
0.00 0.00 0.00 0.00 0.00 0.00 0.00 0.00 0.00 0.00 0.00 0.00 0.00 0.00 0.00 0.00 0.00 0.00 0.00 0.00 0.00 0.00 0.00 0.00 0.00 0.00 0.00 0.00 0.00 0.00 0.00 0.00 0.00 0.00 0.00 0.00 0.00 0.00 0.00 0.00 0.00 0.00 0.00 0.00 0.00 0.00 0.00 0.00 0.00
0.00 0.00 0.00 0.00 0.00 0.00 0.00 0.00 0.00 0.00 0.00 0.00 0.00 0.00 0.00 0.00 0.00 0.00 0.00 0.00 0.00 0.00 0.00 0.00 0.00 0.00 0.00 0.00 0.00 0.00 0.00 0.00 0.00 0.00 0.00 0.00 0.00 0.00 0.00 0.00 0.00 0.00 0.00 0.00 0.00 0.00 0.00 0.00 0.00
0.00 0.00 0.00 0.00 0.00 0.00 0.00 0.00 0.00 0.00 0.00 0.00 0.00 0.00 0.00 0.00 0.00 0.00 0.00 0.00 0.00 0.00 0.00 0.00 0.00 0.00 0.00 0.00 0.00 0.00 0.00 0.00 0.00 0.00 0.00 0.00 0.00 0.00 0.00 0.00 0.00 0.00 0.00 0.00 0.00 0.00 0.00 0.00 0.00
0.00 0.00 0.00 0.00 0.00 0.00 0.00 0.00 0.00 0.00 0.00 0.00 0.00 0.00 0.00 0.00 0.00 0.00 0.00 0.00 0.00 0.00 0.00 0.00 0.00 0.00 0.00 0.00 0.00 0.00 0.00 0.00 0.00 0.00 0.00 0.00 0.00 0.00 0.00 0.00 0.00 0.00 0.00 0.00 0.00 0.00 0.00 0.00 0.00
0.00 0.00 0.00 0.00 0.00 0.00 0.00 0.00 0.00 0.00 0.00 0.00 0.00 0.00 0.00 0.00 0.00 0.00 0.00 0.00 0.00 0.00 0.00 0.00 0.00 0.00 0.00 0.00 0.00 0.00 0.00 0.00 0.00 0.00 0.00 0.00 0.00 0.00 0.00 0.00 0.00 0.00 0.00 0.00 0.00 0.00 0.00 0.00 0.00
0.00 0.00 0.00 0.00 0.00 0.00 0.00 0.00 0.00 0.00 0.00 0.00 0.00 0.00 0.00 0.00 0.00 0.00 0.00 0.00 0.00 0.00 0.00 0.00 0.00 0.00 0.00 0.00 0.00 0.00 0.00 0.00 0.00 0.00 0.00 0.00 0.00 0.00 0.00 0.00 0.00 0.00 0.00 0.00 0.00 0.00 0.00 0.00 0.00
0.00 0.00 0.00 0.00 0.00 0.00 0.00 0.00 0.00 0.00 0.00 0.00 0.00 0.00 0.00 0.00 0.00 0.00 0.00 0.00 0.00 0.00 0.00 0.00 0.00 0.00 0.00 0.00 0.00 0.00 0.00 0.00 0.00 0.00 0.00 0.00 0.00 0.00 0.00 0.00 0.00 0.00 0.00 0.00 0.00 0.00 0.00 0.00 0.00
0.00 0.00 0.00 0.00 0.00 0.00 0.00 0.00 0.00 0.00 0.00 0.00 0.00 0.00 0.00 0.00 0.00 0.00 0.00 0.00 0.00 0.00 0.00 0.00 0.00 0.00 0.00 0.00 0.00 0.00 0.00 0.00 0.00 0.00 0.00 0.00 0.00 0.00 0.00 0.00 0.00 0.00 0.00 0.00 0.00 0.00 0.00 0.00 0.00
0.00 0.00 0.00 0.00 0.00 0.00 0.00 0.00 0.00 0.00 0.00 0.00 0.00 0.00 0.00 0.00 0.00 0.00 0.00 0.00 0.00 0.00 0.00 0.00 0.00 0.00 0.00 0.00 0.00 0.00 0.00 0.00 0.00 0.00 0.00 0.00 0.00 0.00 0.00 0.00 0.00 0.00 0.00 0.00 0.00 0.00 0.00 0.00 0.00
0.00 0.00 0.00 0.00 0.00 0.00 0.00 0.00 0.00 0.00 0.00 0.00 0.00 0.00 0.00 0.00 0.00 0.00 0.01 0.01 0.00 0.00 0.00 0.00 0.00 0.00 0.00 0.00 0.00 0.00 0.00 0.00 0.00 0.00 0.00 0.00 0.00 0.00 0.00 0.00 0.00 0.00 0.00 0.00 0.00 0.00 0.00 0.00 0.00
0.00 0.00 0.00 0.00 0.00 0.00 0.00 0.00 0.00 0.00 0.00 0.00 0.00 0.00 0.00 0.00 0.00 0.00 0.01 0.01 0.00 0.00 0.00 0.00 0.00 0.00 0.00 0.00 0.00 0.00 0.00 0.00 0.00 0.00 0.00 0.00 0.00 0.00 0.00 0.00 0.00 0.00 0.00 0.00 0.00 0.00 0.00 0.00 0.00
0.00 0.00 0.00 0.00 0.00 0.00 0.00 0.00 0.00 0.00 0.00 0.00 0.00 0.00 0.00 0.00 0.00 0.00 0.00 0.01 0.01 0.00 0.00 0.00 0.00 0.00 0.00 0.00 0.00 0.00 0.00 0.00 0.00 0.00 0.00 0.00 0.00 0.00 0.00 0.00 0.00 0.00 0.00 0.00 0.00 0.00 0.00 0.00 0.00
0.00 0.00 0.00 0.00 0.00 0.00 0.00 0.00 0.00 0.00 0.00 0.00 0.00 0.00 0.00 0.00 0.00 0.00 0.00 0.00 0.01 0.00 0.00 0.00 0.00 0.00 0.00 0.00 0.00 0.00 0.00 0.00 0.00 0.00 0.00 0.00 0.00 0.00 0.00 0.00 0.00 0.00 0.00 0.00 0.00 0.00 0.00 0.00 0.00
0.00 0.00 0.00 0.00 0.00 0.00 0.00 0.00 0.00 0.00 0.00 0.00 0.00 0.00 0.00 0.00 0.00 0.00 0.00 0.00 0.00 0.01 0.01 0.00 0.00 0.00 0.00 0.00 0.00 0.00 0.00 0.00 0.00 0.00 0.00 0.00 0.00 0.00 0.00 0.00 0.00 0.00 0.00 0.00 0.00 0.00 0.00 0.00 0.00
0.00 0.00 0.00 0.00 0.00 0.00 0.00 0.00 0.00 0.00 0.00 0.00 0.00 0.00 0.00 0.00 0.00 0.00 0.00 0.00 0.00 0.00 0.01 0.00 0.00 0.00 0.00 0.00 0.00 0.00 0.00 0.00 0.00 0.00 0.00 0.00 0.00 0.00 0.00 0.00 0.00 0.00 0.00 0.00 0.00 0.00 0.00 0.00 0.00
0.00 0.00 0.00 0.00 0.00 0.00 0.00 0.00 0.00 0.00 0.00 0.00 0.00 0.00 0.00 0.00 0.00 0.00 0.00 0.00 0.00 0.00 0.00 0.00 0.00 0.00 0.00 0.00 0.00 0.00 0.00 0.00 0.00 0.00 0.00 0.00 0.00 0.00 0.00 0.00 0.00 0.00 0.00 0.00 0.00 0.00 0.00 0.00 0.00
0.00 0.00 0.00 0.00 0.00 0.00 0.00 0.00 0.00 0.00 0.00 0.00 0.00 0.00 0.00 0.00 0.00 0.00 0.00 0.00 0.00 0.00 0.00 0.00 0.00 0.00 0.00 0.00 0.00 0.00 0.00 0.00 0.00 0.00 0.00 0.00 0.00 0.00 0.00 0.00 0.00 0.00 0.00 0.00 0.00 0.00 0.00 0.00 0.00
0.00 0.00 0.00 0.00 0.00 0.00 0.00 0.00 0.00 0.00 0.00 0.00 0.00 0.00 0.00 0.00 0.00 0.00 0.00 0.00 0.00 0.00 0.00 0.00 0.00 0.00 0.00 0.00 0.00 0.00 0.00 0.00 0.00 0.00 0.00 0.00 0.00 0.00 0.00 0.00 0.00 0.00 0.00 0.00 0.00 0.00 0.00 0.00 0.00
0.00 0.00 0.00 0.00 0.00 0.00 0.00 0.00 0.00 0.00 0.00 0.00 0.00 0.00 0.00 0.00 0.00 0.00 0.00 0.00 0.00 0.00 0.00 0.00 0.00 0.00 0.00 0.00 0.00 0.00 0.00 0.00 0.00 0.00 0.00 0.00 0.00 0.00 0.00 0.00 0.00 0.00 0.00 0.00 0.00 0.00 0.00 0.00 0.00
0.00 0.00 0.00 0.00 0.00 0.00 0.00 0.00 0.00 0.00 0.00 0.00 0.00 0.00 0.00 0.00 0.00 0.00 0.00 0.00 0.00 0.00 0.00 0.00 0.00 0.00 0.00 0.00 0.00 0.00 0.00 0.00 0.00 0.00 0.00 0.00 0.00 0.00 0.00 0.00 0.00 0.00 0.00 0.00 0.00 0.00 0.00 0.00 0.00
0.00 0.00 0.00 0.00 0.00 0.00 0.00 0.00 0.00 0.00 0.00 0.00 0.00 0.00 0.00 0.00 0.00 0.00 0.00 0.00 0.00 0.00 0.00 0.00 0.00 0.00 0.00 0.00 0.00 0.00 0.00 0.00 0.00 0.00 0.00 0.00 0.00 0.00 0.00 0.00 0.00 0.00 0.00 0.00 0.00 0.00 0.00 0.00 0.00
0.00 0.00 0.00 0.00 0.00 0.00 0.00 0.00 0.00 0.00 0.00 0.00 0.00 0.00 0.00 0.00 0.00 0.00 0.00 0.00 0.00 0.00 0.00 0.00 0.00 0.00 0.00 0.00 0.00 0.00 0.00 0.00 0.00 0.00 0.00 0.00 0.00 0.00 0.00 0.00 0.00 0.00 0.00 0.00 0.00 0.00 0.00 0.00 0.00
0.00 0.00 0.00 0.00 0.00 0.00 0.00 0.00 0.00 0.00 0.00 0.00 0.00 0.00 0.00 0.00 0.00 0.00 0.00 0.00 0.00 0.00 0.00 0.00 0.00 0.00 0.00 0.00 0.00 0.00 0.00 0.00 0.00 0.00 0.00 0.00 0.00 0.00 0.00 0.00 0.00 0.00 0.00 0.00 0.00 0.00 0.00 0.00 0.00
0.00 0.00 0.00 0.00 0.00 0.00 0.00 0.00 0.00 0.00 0.00 0.00 0.00 0.00 0.00 0.00 0.00 0.00 0.00 0.00 0.00 0.00 0.00 0.00 0.00 0.00 0.00 0.00 0.00 0.00 0.00 0.00 0.00 0.00 0.00 0.00 0.00 0.00 0.00 0.00 0.00 0.00 0.00 0.00 0.00 0.00 0.00 0.00 0.00
0.00 0.00 0.00 0.00 0.00 0.00 0.00 0.00 0.00 0.00 0.00 0.00 0.00 0.00 0.00 0.00 0.00 0.00 0.00 0.00 0.00 0.00 0.00 0.00 0.00 0.00 0.00 0.00 0.00 0.00 0.00 0.00 0.00 0.00 0.00 0.00 0.00 0.00 0.00 0.00 0.00 0.00 0.00 0.00 0.00 0.00 0.00 0.00 0.00
0.00 0.00 0.00 0.00 0.00 0.00 0.00 0.00 0.00 0.00 0.00 0.00 0.00 0.00 0.00 0.00 0.00 0.00 0.00 0.00 0.00 0.00 0.00 0.00 0.00 0.00 0.00 0.00 0.00 0.00 0.00 0.00 0.00 0.00 0.00 0.00 0.00 0.00 0.00 0.00 0.00 0.00 0.00 0.00 0.00 0.00 0.00 0.00 0.00
0.00 0.00 0.00 0.00 0.00 0.00 0.00 0.00 0.00 0.00 0.00 0.00 0.00 0.00 0.00 0.00 0.00 0.00 0.00 0.00 0.00 0.00 0.00 0.00 0.00 0.00 0.00 0.00 0.00 0.00 0.00 0.00 0.00 0.00 0.00 0.00 0.00 0.00 0.00 0.00 0.00 0.00 0.00 0.00 0.00 0.00 0.00 0.00 0.00
0.00 0.00 0.00 0.00 0.00 0.00 0.00 0.00 0.00 0.00 0.00 0.00 0.00 0.00 0.00 0.00 0.00 0.00 0.00 0.00 0.00 0.00 0.00 0.00 0.00 0.00 0.00 0.00 0.00 0.00 0.00 0.00 0.00 0.00 0.00 0.00 0.00 0.00 0.00 0.00 0.00 0.00 0.00 0.00 0.00 0.00 0.00 0.00 0.00
0.00 0.00 0.00 0.00 0.00 0.01 0.00 0.00 0.00 0.00 0.00 0.00 0.00 0.00 0.00 0.00 0.00 0.00 0.00 0.00 0.00 0.00 0.00 0.00 0.00 0.00 0.00 0.00 0.00 0.00 0.00 0.00 0.00 0.00 0.00 0.00 0.00 0.00 0.00 0.00 0.00 0.00 0.00 0.00 0.00 0.00 0.00 0.00 0.00
MSLP
1010.63 1010.09 1009.57 1008.25 1006.86 1004.69 1002.69 1002.65 1003.10 1002.75 1002.88 1003.24 1003.33 1003.18 1002.39 1001.82 1001.70 1001.19 1002.72 1003.10 1003.54 1004.51 1005.88 1007.31 1008.32 1009.03 1009.47 1009.66 1009.93 1010.26 1010.65 1010.88 1011.29 1011.52 1011.90 1012.19 1012.56 1012.93 1013.31 1013.65 1013.98 1014.12 1014.37 1014.53 1014.79 1015.00 1015.15 1015.30 1015.38
1010.14 1009.86 1009.20 1007.67 1006.20 1003.85 1002.71 1003.24 1003.09 1002.69 1003.47 1003.71 1003.40 1003.16 1003.00 1002.49 1003.21 1002.94 1002.41 1003.69 1004.25 1004.96 1006.00 1006.84 1008.34 1009.10 1009.55 1009.76 1010.03 1010.29 1010.73 1010.99 1011.28 1011.63 1012.03 1012.33 1012.69 1013.15 1013.54 1013.80 1014.16 1014.40 1014.61 1014.82 1015.02 1015.15 1015.29 1015.52 1015.57
1010.46 1009.89 1008.14 1006.78 1005.80 1004.55 1003.51 1003.76 1003.37 1003.54 1003.94 1003.86 1003.38 1003.47 1003.56 1003.17 1003.98 1003.94 1003.31 1004.50 1004.66 1005.40 1006.08 1006.54 1007.80 1008.92 1009.72 1010.13 1010.28 1010.48 1010.78 1011.01 1011.29 1011.66 1012.06 1012.46 1012.72 1013.11 1013.51 1013.86 1014.19 1014.45 1014.74 1014.96 1015.19 1015.35 1015.43 1015.54 1015.75
1009.67 1008.95 1008.19 1006.84 1005.91 1006.38 1005.83 1004.74 1004.51 1004.03 1003.93 1004.09 1003.93 1003.32 1003.61 1004.28 1004.53 1004.81 1004.19 1004.38 1004.82 1005.26 1005.80 1006.83 1007.74 1008.59 1009.46 1010.20 1010.55 1010.71 1010.92 1011.20 1011.40 1011.69 1012.03 1012.44 1012.82 1013.15 1013.52 1013.89 1014.23 1014.38 1014.64 1014.82 1015.06 1015.34 1015.50 1015.73 1015.85
1009.43 1008.14 1006.91 1006.33 1006.18 1006.76 1006.37 1005.96 1005.15 1004.48 1004.13 1003.90 1004.14 1003.54 1003.66 1004.15 1004.69 1004.70 1004.41 1004.01 1004.33 1005.12 1005.60 1006.83 1007.77 1008.53 1009.23 1009.93 1010.46 1010.80 1011.02 1011.35 1011.54 1011.73 1012.07 1012.57 1012.96 1013.25 1013.59 1013.87 1014.18 1014.44 1014.68 1014.92 1015.17 1015.52 1015.69 1015.84 1015.95
1008.27 1007.66 1006.33 1005.42 1005.40 1006.23 1006.24 1006.06 1005.49 1004.87 1004.34 1004.08 1004.11 1004.09 1003.76 1004.22 1004.64 1004.72 1004.41 1003.95 1004.30 1004.76 1005.62 1006.76 1008.02 1008.37 1009.47 1010.08 1010.52 1010.97 1011.24 1011.51 1011.72 1011.93 1012.09 1012.53 1013.04 1013.43 1013.72 1014.00 1014.29 1014.56 1014.91 1015.09 1015.32 1015.61 1015.96 1016.14 1016.21
1007.66 1006.63 1005.74 1005.14 1004.78 1005.69 1005.78 1005.83 1005.63 1005.26 1004.75 1004.08 1004.79 1004.18 1003.89 1004.29 1004.80 1004.74 1004.65 1004.16 1004.17 1004.75 1005.58 1006.55 1007.83 1008.41 1009.21 1009.97 1010.57 1011.20 1011.50 1011.80 1012.01 1012.23 1012.51 1012.69 1013.08 1013.65 1014.06 1014.34 1014.53 1014.59 1014.81 1014.95 1015.17 1015.56 1015.84 1016.13 1016.30
1007.06 1006.37 1005.47 1004.65 1004.15 1004.33 1005.25 1005.80 1005.62 1005.51 1005.26 1005.06 1005.04 1003.92 1004.13 1004.75 1004.58 1004.40 1004.70 1004.30 1004.06 1004.69 1005.39 1006.37 1007.25 1008.16 1008.92 1009.68 1010.73 1011.20 1011.79 1012.17 1012.47 1012.74 1012.90 1013.14 1013.43 1013.88 1014.18 1014.59 1014.69 1014.70 1014.85 1015.06 1015.18 1015.38 1015.62 1015.89 1016.07
1007.59 1006.07 1004.53 1003.99 1003.89 1004.13 1004.71 1005.54 1005.38 1005.60 1005.75 1005.58 1005.30 1005.14 1004.99 1005.04 1004.58 1004.21 1004.42 1004.61 1004.33 1004.67 1005.33 1006.02 1007.01 1007.83 1008.23 1008.76 1010.17 1011.31 1011.71 1012.30 1012.60 1013.05 1013.30 1013.45 1013.16 1013.53 1013.87 1014.30 1014.57 1014.91 1015.04 1015.07 1015.08 1015.34 1015.60 1015.88 1016.05
1006.71 1005.33 1004.10 1003.90 1003.76 1004.05 1004.26 1004.95 1005.17 1005.44 1005.53 1005.21 1005.27 1004.97 1005.31 1005.10 1004.50 1004.14 1004.04 1004.02 1004.61 1004.95 1005.34 1005.90 1006.88 1007.65 1007.99 1008.21 1009.09 1010.50 1010.86 1011.53 1011.90 1012.30 1012.62 1012.83 1012.72 1013.00 1013.04 1013.48 1014.49 1014.78 1014.99 1014.90 1015.17 1015.27 1015.47 1015.71 1014.64
1006.27 1004.88 1004.25 1003.98 1004.21 1004.94 1004.70 1005.03 1005.53 1004.73 1004.97 1005.18 1005.36 1005.68 1005.62 1005.27 1004.79 1004.15 1004.39 1004.43 1004.20 1005.09 1005.66 1006.05 1007.03 1007.68 1007.93 1007.96 1008.64 1009.46 1009.94 1010.68 1011.21 1011.78 1012.00 1012.38 1012.29 1012.66 1013.12 1013.02 1013.68 1014.06 1014.65 1014.43 1014.66 1014.77 1014.73 1014.23 1014.13
1006.40 1005.70 1005.44 1004.77 1005.02 1005.74 1005.37 1005.28 1004.97 1005.25 1004.69 1005.56 1005.97 1006.06 1005.73 1005.34 1004.89 1004.50 1004.30 1004.48 1004.80 1004.90 1005.41 1006.56 1007.00 1007.99 1008.17 1007.88 1008.62 1008.73 1009.22 1009.96 1010.42 1011.00 1011.70 1011.81 1012.26 1012.40 1012.60 1012.39 1012.86 1013.51 1013.35 1013.70 1013.52 1013.58 1013.85 1013.99 1014.03
1006.90 1005.74 1006.25 1006.11 1005.77 1006.06 1005.88 1005.58 1005.35 1005.57 1005.22 1006.26 1006.14 1005.86 1005.57 1005.28 1004.87 1004.50 1004.30 1004.78 1004.58 1004.83 1005.23 1006.11 1006.99 1007.97 1008.32 1008.32 1008.29 1008.63 1008.89 1009.52 1009.87 1010.34 1011.10 1011.38 1011.65 1012.14 1012.20 1012.22 1012.35 1012.47 1012.53 1012.70 1013.01 1013.02 1013.31 1013.70 1013.96
1006.60 1006.47 1006.47 1006.25 1006.09 1005.94 1005.76 1005.38 1005.44 1005.36 1005.74 1005.78 1005.61 1005.68 1005.49 1005.20 1004.88 1004.73 1004.32 1004.64 1004.80 1004.94 1005.39 1005.82 1006.37 1007.35 1008.11 1008.28 1008.19 1008.68 1008.97 1009.20 1009.79 1009.91 1010.42 1011.29 1011.23 1011.55 1011.78 1012.00 1012.14 1012.07 1012.31 1012.31 1012.63 1012.75 1013.09 1013.29 1013.32
1007.55 1007.30 1006.56 1006.12 1005.98 1005.79 1006.08 1005.50 1004.95 1005.44 1005.91 1005.61 1005.26 1005.46 1005.56 1005.22 1005.12 1005.02 1004.90 1005.16 1005.28 1005.08 1005.29 1005.58 1006.29 1006.69 1007.28 1007.92 1008.37 1008.40 1008.66 1008.98 1009.32 1009.41 1010.37 1010.75 1011.24 1011.20 1011.50 1011.32 1011.42 1011.44 1011.99 1012.42 1012.28 1012.40 1012.77 1012.99 1012.85
1007.43 1007.02 1005.55 1004.92 1005.83 1005.93 1006.68 1004.43 1004.99 1006.12 1005.97 1005.91 1005.89 1005.57 1005.42 1005.18 1004.92 1005.24 1005.14 1005.32 1005.69 1005.77 1005.53 1005.58 1005.73 1005.83 1006.60 1007.16 1007.35 1007.80 1008.22 1008.41 1008.49 1008.86 1009.57 1010.31 1010.75 1010.90 1010.97 1010.99 1011.35 1011.16 1011.78 1012.19 1012.48 1012.24 1011.69 1012.00 1012.22
1006.76 1005.30 1005.23 1005.19 1006.12 1005.89 1006.02 1004.43 1004.97 1005.98 1005.89 1005.91 1006.08 1005.41 1005.03 1005.06 1004.93 1005.25 1005.44 1005.27 1005.85 1006.09 1005.69 1005.42 1005.61 1005.80 1005.87 1006.54 1006.87 1007.25 1007.85 1008.03 1007.93 1008.54 1009.09 1009.37 1010.10 1010.22 1010.62 1010.90 1011.00 1011.34 1011.40 1011.38 1011.71 1011.80 1011.80 1011.03 1011.51
1005.02 1005.60 1005.85 1005.38 1005.78 1006.09 1005.55 1005.14 1005.17 1005.42 1005.43 1005.50 1005.34 1005.10 1004.65 1004.75 1004.85 1005.06 1005.42 1005.73 1005.74 1005.76 1005.74 1005.56 1005.38 1005.13 1005.99 1006.17 1007.44 1007.35 1006.99 1007.44 1007.62 1008.05 1007.93 1007.81 1008.98 1009.86 1009.98 1010.19 1010.71 1011.02 1011.10 1011.02 1011.24 1010.94 1010.92 1011.24 1010.74
1006.71 1006.46 1006.02 1005.91 1006.27 1006.42 1005.41 1004.82 1004.71 1004.70 1004.74 1004.60 1004.60 1004.66 1004.42 1004.68 1005.02 1005.15 1005.15 1005.28 1005.20 1005.37 1005.30 1005.48 1005.92 1006.12 1005.70 1007.42 1007.25 1006.89 1006.19 1006.58 1007.24 1006.77 1007.02 1007.16 1007.90 1008.54 1009.39 1010.02 1009.05 1010.23 1010.35 1010.10 1009.98 1010.07 1010.28 1010.71 1010.94
1007.15 1006.63 1006.26 1006.47 1006.73 1006.72 1005.65 1004.75 1004.47 1004.11 1003.80 1003.73 1003.76 1004.20 1004.53 1005.11 1005.25 1005.18 1005.18 1005.61 1005.70 1005.61 1005.94 1005.98 1005.72 1006.13 1006.36 1005.65 1005.49 1005.55 1004.63 1005.65 1006.61 1006.06 1006.78 1006.23 1007.13 1007.84 1008.44 1009.01 1008.55 1008.63 1010.07 1010.88 1010.96 1009.20 1009.25 1010.27 1010.20
1007.03 1006.77 1006.53 1006.85 1006.84 1006.46 1005.58 1003.93 1003.15 1003.38 1003.46 1003.42 1003.92 1004.43 1004.87 1005.16 1005.35 1005.55 1005.61 1005.72 1005.55 1005.77 1006.18 1006.28 1006.14 1005.84 1005.48 1005.13 1004.58 1004.44 1004.65 1004.63 1005.37 1005.70 1005.54 1005.01 1006.12 1006.78 1006.63 1007.92 1007.64 1007.84 1009.05 1008.03 1009.39 1008.59 1008.67 1009.09 1009.65
1006.62 1006.91 1007.41 1007.32 1006.87 1005.19 1005.62 1003.24 1002.71 1003.02 1003.16 1003.45 1003.93 1004.20 1004.50 1004.84 1005.10 1005.23 1005.51 1005.70 1005.89 1006.11 1005.97 1006.15 1006.05 1005.75 1005.21 1005.11 1004.54 1004.24 1003.96 1004.06 1003.75 1003.87 1004.49 1004.36 1004.98 1005.25 1006.03 1006.77 1006.68 1006.99 1007.23 1007.30 1007.55 1007.90 1008.19 1009.04 1008.32
1006.96 1007.62 1007.56 1007.33 1006.63 1005.83 1004.76 1004.21 1001.46 1002.45 1002.60 1003.06 1003.40 1003.74 1004.02 1004.50 1004.97 1005.03 1005.00 1005.56 1005.68 1005.53 1005.63 1005.79 1005.79 1005.79 1005.52 1005.30 1005.15 1004.76 1004.32 1003.40 1002.84 1003.11 1003.53 1003.44 1003.81 1004.48 1005.24 1005.49 1005.88 1006.06 1006.15 1006.54 1006.91 1007.05 1007.79 1008.01 1007.76
1007.70 1007.65 1007.13 1006.66 1006.13 1004.73 1003.35 1003.42 1001.02 1001.81 1002.35 1002.67 1003.28 1003.67 1004.00 1004.16 1004.46 1004.77 1004.99 1004.93 1004.83 1005.01 1005.10 1005.12 1005.44 1005.49 1005.48 1005.36 1005.00 1004.87 1004.54 1003.94 1003.06 1002.53 1002.39 1002.32 1002.66 1003.59 1004.13 1004.65 1004.97 1005.25 1005.44 1005.91 1006.34 1006.61 1007.12 1007.35 1007.17
1007.81 1007.25 1005.80 1004.95 1004.55 1003.23 1004.19 1004.03 1002.08 1002.57 1003.10 1003.26 1003.41 1003.58 1003.57 1003.97 1004.37 1004.70 1004.64 1004.81 1004.93 1004.84 1005.11 1005.22 1004.95 1004.75 1004.89 1004.96 1004.61 1004.52 1004.42 1004.15 1003.73 1002.96 1002.40 1002.10 1001.66 1001.96 1002.72 1003.71 1003.88 1004.21 1004.96 1005.17 1005.43 1006.28 1006.52 1006.77 1006.75
1006.90 1007.20 1006.46 1005.38 1004.32 1003.23 1003.71 1002.84 1002.05 1003.04 1003.50 1003.69 1003.80 1003.78 1003.84 1003.98 1004.05 1004.63 1004.74 1004.78 1004.52 1004.46 1004.69 1004.61 1004.44 1004.44 1004.33 1004.28 1004.16 1004.07 1003.90 1003.42 1002.80 1002.31 1001.92 1001.56 1001.29 1001.23 1002.15 1002.95 1003.08 1003.42 1004.02 1004.47 1005.18 1005.49 1005.90 1006.03 1006.44
1007.31 1007.58 1007.34 1007.18 1006.59 1005.13 1003.33 1002.44 1002.56 1002.75 1003.21 1003.57 1003.53 1003.70 1003.63 1004.00 1004.40 1004.25 1004.04 1003.99 1004.15 1004.35 1004.39 1004.34 1004.11 1003.85 1003.56 1003.38 1003.36 1003.29 1003.25 1002.99 1002.36 1001.70 1001.47 1001.49 1001.41 1001.24 1001.64 1001.93 1002.44 1002.41 1003.28 1003.57 1004.55 1004.78 1005.13 1005.41 1005.90
1008.24 1007.72 1007.74 1007.66 1006.47 1004.28 1002.43 1001.77 1001.25 1001.97 1002.67 1003.29 1003.46 1003.69 1003.74 1003.95 1003.87 1003.69 1003.65 1003.65 1003.69 1003.79 1003.69 1003.68 1003.53 1003.34 1003.19 1003.02 1002.74 1002.32 1002.16 1002.04 1001.91 1001.77 1001.22 1000.84 1000.76 1000.94 1000.85 1000.86 1001.61 1002.09 1002.69 1003.03 1003.87 1004.03 1004.58 1004.70 1005.00
1008.29 1007.65 1008.19 1008.02 1006.98 1005.49 1003.44 1001.46 1002.01 1002.54 1002.91 1003.43 1003.66 1003.76 1003.77 1003.60 1003.31 1003.53 1003.47 1003.41 1003.32 1003.01 1002.85 1002.76 1002.64 1002.50 1002.34 1002.21 1002.09 1001.81 1001.31 1001.04 1000.83 1000.52 1000.28 1000.42 1000.41 1000.32 1000.47 1000.43 1000.85 1001.32 1001.79 1002.43 1003.09 1003.23 1003.48 1003.94 1004.40
1007.63 1007.07 1007.19 1007.61 1007.33 1006.73 1005.50 1002.88 1002.14 1002.60 1002.92 1003.56 1003.48 1003.64 1003.79 1003.61 1003.38 1003.31 1003.37 1003.23 1002.97 1002.49 1002.18 1002.14 1002.31 1002.09 1001.73 1001.49 1001.31 1001.12 1000.86 1000.42 1000.13 999.80 999.59 999.55 999.26 999.64 999.95 999.80 999.98 1000.37 1001.03 1001.79 1002.26 1002.48 1002.61 1003.35 1003.95
Thickness
5754 5762 5770 5772 5757 5772 5780 5784 5795 5794 5796 5810 5815 5811 5818 5833 5821 5819 5864 5869 5871 5863 5852 5840 5833 5827 5823 5821 5818 5815 5811 5808 5804 5801 5797 5794 5790 5786 5781 5778 5775 5774 5771 5769 5765 5761 5758 5756 5754
5752 5757 5759 5757 5744 5755 5777 5786 5781 5795 5796 5807 5812 5815 5813 5811 5831 5839 5854 5861 5860 5856 5850 5842 5832 5825 5821 5819 5816 5813 5809 5806 5803 5800 5796 5792 5789 5783 5779 5777 5773 5770 5768 5765 5761 5760 5757 5754 5753
5742 5748 5744 5740 5742 5745 5762 5773 5781 5786 5794 5793 5799 5814 5810 5809 5825 5833 5857 5853 5855 5848 5845 5843 5835 5826 5818 5814 5812 5810 5807 5805 5803 5800 5796 5791 5789 5785 5780 5777 5774 5771 5766 5763 5760 5757 5755 5752 5750
5735 5738 5738 5725 5723 5725 5737 5762 5769 5774 5786 5791 5793 5794 5813 5823 5823 5834 5850 5853 5849 5848 5844 5838 5833 5826 5819 5812 5809 5807 5805 5803 5802 5799 5796 5792 5788 5785 5781 5777 5774 5772 5767 5765 5761 5756 5754 5749 5747
5728 5729 5716 5716 5718 5721 5741 5752 5760 5759 5771 5780 5785 5781 5794 5816 5830 5837 5842 5852 5849 5846 5843 5834 5829 5824 5819 5814 5809 5806 5803 5801 5800 5798 5795 5790 5786 5784 5781 5778 5774 5770 5767 5764 5760 5754 5751 5746 5744
5710 5720 5705 5711 5723 5724 5737 5750 5756 5758 5768 5774 5774 5776 5788 5817 5821 5830 5840 5846 5848 5845 5839 5830 5823 5823 5814 5810 5807 5803 5800 5798 5797 5795 5794 5789 5784 5781 5779 5775 5772 5769 5764 5761 5757 5753 5747 5743 5741
5701 5707 5704 5717 5725 5715 5730 5748 5745 5751 5757 5764 5772 5763 5786 5800 5815 5825 5833 5841 5845 5843 5837 5828 5820 5819 5814 5808 5803 5798 5796 5794 5792 5790 5787 5786 5784 5778 5773 5770 5768 5767 5764 5761 5757 5752 5748 5743 5739
5708 5706 5700 5715 5719 5720 5735 5735 5747 5745 5745 5766 5771 5761 5765 5789 5812 5823 5826 5833 5838 5837 5833 5826 5821 5816 5811 5805 5798 5795 5790 5788 5786 5784 5782 5780 5778 5773 5770 5766 5764 5763 5761 5758 5756 5753 5748 5744 5741
5704 5688 5694 5710 5716 5723 5739 5723 5741 5749 5743 5750 5759 5762 5776 5790 5806 5813 5815 5819 5825 5827 5827 5825 5819 5813 5813 5809 5798 5790 5788 5783 5781 5778 5777 5775 5776 5773 5770 5764 5761 5758 5757 5756 5756 5751 5747 5742 5739
5688 5689 5703 5726 5730 5722 5733 5728 5728 5729 5733 5743 5748 5765 5771 5782 5794 5798 5804 5808 5810 5813 5818 5819 5815 5811 5809 5808 5803 5792 5790 5785 5783 5780 5778 5776 5776 5773 5773 5769 5760 5757 5754 5755 5751 5750 5747 5743 5747
5689 5687 5713 5719 5720 5718 5720 5718 5724 5730 5723 5736 5734 5740 5755 5767 5778 5790 5793 5800 5807 5807 5807 5810 5807 5804 5804 5806 5801 5796 5794 5788 5785 5780 5780 5777 5777 5774 5769 5769 5762 5759 5754 5754 5752 5749 5750 5753 5749
5672 5689 5693 5701 5707 5699 5704 5716 5713 5717 5729 5728 5732 5738 5746 5755 5766 5777 5786 5791 5794 5800 5802 5799 5801 5795 5796 5800 5796 5797 5795 5790 5787 5782 5778 5777 5773 5772 5770 5771 5764 5758 5759 5757 5757 5754 5751 5749 5747
5662 5680 5679 5685 5689 5691 5698 5697 5699 5700 5717 5714 5723 5732 5737 5745 5758 5770 5781 5783 5791 5789 5797 5796 5793 5787 5788 5790 5793 5792 5792 5789 5785 5782 5776 5775 5774 5770 5769 5769 5766 5764 5763 5762 5758 5757 5753 5748 5744
5667 5669 5670 5675 5678 5681 5682 5690 5691 5699 5707 5712 5718 5719 5729 5737 5747 5756 5767 5773 5779 5784 5785 5789 5791 5785 5780 5779 5786 5785 5784 5783 5778 5778 5775 5770 5772 5770 5770 5768 5766 5764 5762 5761 5757 5755 5752 5748 5745
5653 5645 5659 5667 5670 5671 5674 5671 5680 5692 5696 5700 5708 5714 5719 5729 5739 5743 5749 5756 5766 5774 5775 5780 5781 5785 5783 5776 5779 5777 5777 5777 5776 5778 5770 5768 5765 5767 5765 5770 5768 5766 5760 5756 5757 5754 5749 5747 5746
5641 5645 5649 5669 5664 5666 5657 5667 5674 5678 5683 5687 5688 5700 5711 5720 5731 5733 5742 5747 5753 5760 5769 5767 5776 5784 5781 5779 5777 5774 5772 5776 5776 5776 5771 5765 5762 5763 5764 5766 5762 5763 5756 5754 5751 5752 5753 5749 5744
5640 5647 5646 5649 5657 5656 5654 5665 5670 5673 5673 5673 5678 5695 5702 5710 5720 5726 5730 5736 5737 5749 5758 5764 5764 5769 5775 5771 5772 5772 5769 5771 5776 5770 5767 5768 5764 5763 5760 5760 5761 5757 5758 5759 5755 5753 5751 5752 5744
5641 5635 5634 5639 5647 5648 5649 5652 5662 5666 5669 5670 5677 5686 5697 5702 5710 5719 5724 5727 5731 5737 5744 5755 5763 5768 5759 5763 5758 5763 5771 5771 5771 5769 5774 5775 5765 5759 5762 5763 5753 5753 5757 5757 5753 5752 5754 5747 5746
5623 5624 5626 5635 5638 5633 5643 5650 5656 5663 5667 5672 5678 5679 5687 5693 5700 5712 5717 5723 5729 5735 5739 5740 5738 5745 5755 5736 5745 5753 5765 5765 5767 5776 5775 5775 5769 5766 5761 5756 5761 5757 5757 5757 5755 5755 5750 5744 5739
5611 5613 5618 5623 5626 5622 5632 5640 5652 5661 5666 5673 5676 5677 5678 5679 5685 5694 5704 5704 5711 5717 5722 5724 5732 5736 5739 5751 5754 5755 5768 5767 5762 5770 5767 5780 5770 5764 5764 5761 5763 5768 5751 5740 5738 5757 5753 5741 5739
5604 5604 5607 5605 5612 5622 5625 5639 5649 5657 5660 5665 5666 5668 5666 5667 5671 5675 5682 5689 5698 5703 5707 5714 5720 5728 5738 5747 5755 5761 5763 5768 5761 5762 5769 5779 5769 5765 5771 5761 5768 5767 5754 5758 5747 5756 5751 5740 5737
5596 5604 5596 5594 5597 5610 5617 5625 5641 5646 5645 5649 5652 5654 5656 5659 5665 5668 5672 5675 5678 5686 5698 5703 5712 5720 5730 5735 5743 5748 5753 5754 5766 5770 5769 5774 5769 5775 5769 5767 5770 5767 5765 5761 5760 5756 5751 5739 5737
5591 5591 5589 5590 5593 5600 5611 5604 5646 5644 5635 5636 5640 5646 5652 5653 5654 5662 5668 5670 5675 5684 5688 5692 5700 5705 5714 5721 5726 5732 5738 5754 5767 5764 5754 5769 5773 5774 5772 5769 5770 5768 5766 5761 5758 5756 5748 5743 5741
5585 5581 5588 5594 5594 5595 5618 5610 5641 5630 5631 5635 5636 5637 5642 5650 5654 5656 5660 5667 5674 5679 5684 5686 5688 5692 5699 5706 5715 5719 5725 5735 5747 5758 5764 5770 5772 5771 5771 5769 5769 5767 5762 5757 5755 5753 5747 5742 5741
5572 5574 5582 5592 5594 5607 5599 5593 5621 5621 5620 5623 5625 5631 5640 5642 5642 5645 5650 5652 5656 5663 5666 5671 5679 5684 5688 5692 5703 5710 5717 5724 5730 5743 5753 5759 5769 5771 5772 5767 5767 5764 5757 5758 5755 5748 5743 5741 5737
5575 5569 5568 5561 5590 5607 5602 5595 5610 5616 5614 5615 5617 5623 5629 5631 5636 5631 5634 5638 5647 5652 5655 5661 5667 5673 5678 5684 5692 5699 5708 5718 5729 5739 5748 5756 5761 5767 5766 5763 5764 5762 5758 5756 5749 5745 5741 5739 5733
5565 5556 5569 5553 5566 5571 5597 5609 5612 5613 5605 5602 5608 5611 5616 5617 5617 5622 5629 5634 5635 5636 5641 5646 5655 5663 5671 5677 5684 5691 5700 5708 5719 5733 5741 5744 5752 5759 5759 5761 5757 5760 5754 5752 5744 5742 5740 5736 5730
5551 5563 5547 5552 5543 5568 5601 5604 5606 5603 5598 5592 5593 5594 5601 5604 5607 5611 5614 5618 5623 5627 5632 5636 5643 5650 5657 5666 5675 5685 5693 5703 5712 5720 5729 5738 5746 5750 5755 5758 5754 5753 5750 5748 5741 5739 5735 5733 5731
5537 5546 5541 5546 5558 5558 5576 5604 5602 5593 5591 5583 5583 5587 5589 5592 5597 5596 5598 5603 5608 5614 5620 5626 5634 5641 5648 5656 5665 5674 5686 5697 5706 5716 5727 5732 5739 5743 5747 5750 5749 5747 5745 5743 5737 5737 5736 5731 5727
5544 5549 5551 5537 5541 5546 5547 5571 5601 5590 5587 5580 5579 5578 5578 5582 5584 5583 5582 5583 5586 5594 5601 5606 5613 5622 5634 5644 5654 5664 5676 5687 5698 5709 5719 5727 5734 5738 5739 5745 5745 5744 5742 5739 5735 5733 5733 5726 5721